MIDAS 3 DEB, 6215

Orbit data source: Space-Track

MIDAS 3 DEB, 6215 is space debris in LEO originally from a launch on Wed, 12 Jul 1961 UTC launched from the Air Force Western Test Range (AFWTR). Debris objects in space refer to the collection of defunct objects orbiting the Earth. Examples of debris include non-operational satellites, rocket bodies, and fragments generated from explosions, collisions, or faulty payload assembly.

Loading next visibility...
Identifier
6215, 1961-018E
Orbit
LEO
Last TLE update
2 weeks ago
Origin
Manufacturer
Unknown
Mission
Spacecraft
Bus & Motor
Unknown
Mass
Unknown
Launch date (UTC)
1961-07-12 (64 years ago)
Launch vehicle
Unknown
Launch site
Air Force Western Test Range (AFWTR)
Object type
Payload
Rocket body
Debris
Shape & HBR
Unknown
Radar Cross Section
Medium (>0.1 m² and <1 m²)

Expand to show TLE details & history

TLE from 2 weeks ago
0 MIDAS 3 DEB
1 06215U 61018E   25186.98686670  .00000018  00000-0  60118-2 0  9999
2 06215  91.0983 188.6852 0058126 233.0147 126.5395  8.90939901349089
Epoch: 2025-07-05T23:41Z
TLE epoch observation values (Epoch: 2025-07-05T23:41:05.282Z)
Latitude
-0.00003°
Longitude
-90.80384°
Altitude
3,487.187 km
Speed
6.346 km/s
True Right ascension
12h 34m 44s
True Declination
0° 00' 00"
Sunlit
Object was in daylight at epoch
Visualization orbit readout
Latitude
-55.93011°
Longitude
-88.63952°
Altitude
3,467.381 km
Speed
6.365 km/s
Apparent Right ascension
13h 19m 27s
Apparent Declination
-87° 01' 35"
Sunlit
Object is in daylight
Visualization observer readout
Local Sidereal Time
12:38:45
Azimuth
179.342° S
Elevation
-36.988°
Doppler factor
1
Orbital elements
Apogee altitude
3,505.604 km
Perigee altitude
3,391.368 km
Semi-major axis
9,826.623 km
Eccentricity
0.00581
Inclination
91.0983°
RAAN
188.6852°
Arg. of periapsis
233.0147°
True anomaly
127.07234°
Mean anomaly
126.5395°
Eccentric anomaly
126.80615°
Mean motion
2.22811 °/min
Orbital period
161.57 mins
BSTAR
0.0060118
Loading maneuver chart data...
Loading SW <> Apogee altitude chart data...
Loading historical data...
Loading historical data...
Loading historical data...
Loading historical data...
Loading historical data...
Loading historical data...
Loading historical data...
Other satellites on launch #18 in the year 1961 (1961-07-12 UTC)
|